Vorticity
8 8 9 9 8 6 5 5 5 7 7 6 6 7 6 3 4 7 8 9 7 5 6 6 8 8 7 7 9 8 5 9 17 21 14 10 10 10 12 13 14 14 13 14 14 16 11
9 8 2 5 6 8 8 7 8 6 3 5 6 6 5 6 7 8 7 9 8 9 8 7 8 7 6 4 9 7 10 18 16 8 16 34 42 40 39 30 21 19 15 16 17 12 10
3 4 6 7 1 5 8 7 7 7 6 5 5 3 3 5 5 6 7 9 10 10 8 8 7 6 6 10 8 10 20 17 9 59 33 8 6 5 5 4 21 31 21 10 11 17 20
4 4 6 5 5 10 4 3 5 7 6 5 5 4 2 1 3 4 4 8 12 9 8 6 7 6 7 11 10 20 19 14 40 15 6 11 2 11 8 25 22 4 10 23 16 5 15
-1 -10 0 2 3 2 4 5 4 2 5 5 4 3 3 1 0 2 3 5 11 10 7 7 7 6 12 9 18 16 12 43 2 9 9 21 2 11 26 21 19 32 28 6 3 6 10
37 -1 2 2 8 5 3 1 3 4 2 4 3 4 4 2 0 1 3 5 8 11 9 7 5 12 11 10 16 9 50 9 7 10 15 9 7 10 5 27 22 8 28 27 26 11 21
0 -9 29 18 4 4 6 8 7 4 5 0 7 4 3 4 3 1 2 3 7 12 9 8 6 10 16 11 15 25 24 1 9 18 17 8 10 9 3 10 25 17 13 16 15 11 5
13 3 1 -3 2 3 1 3 8 3 11 9 4 6 7 5 4 2 1 3 6 12 9 8 7 11 10 12 9 47 11 5 8 18 11 11 4 5 11 14 5 15 29 32 19 16 11
2 4 -0 6 3 5 3 4 4 5 0 18 2 6 7 5 5 4 0 2 5 11 9 11 7 15 9 18 19 33 6 2 17 8 7 15 2 6 6 7 15 23 1 22 27 13 14
1 -0 14 -7 2 7 3 -0 -0 -4 11 -3 8 -1 5 7 7 3 2 2 4 11 6 6 8 12 8 17 22 18 5 3 1 1 10 11 11 15 14 22 10 32 9 5 13 9 26
4 1 1 -2 1 6 7 4 1 6 15 7 4 -0 5 7 4 5 3 2 4 10 9 7 8 9 8 14 14 5 -2 -2 18 11 8 7 14 15 20 20 24 5 20 20 16 6 -5
3 4 3 4 6 2 5 -1 12 5 -0 12 6 12 1 5 4 5 4 2 3 7 13 11 6 9 10 8 19 15 3 22 19 13 5 11 10 18 22 12 0 7 7 6 64 13 19
1 5 4 4 5 5 5 4 2 10 5 10 7 5 5 4 4 4 6 -2 2 7 9 11 6 10 10 5 11 20 15 7 8 -1 4 4 10 12 7 5 16 2 -5 2 16 16 -9
5 8 6 6 8 7 7 9 1 6 8 6 7 5 6 5 4 4 3 4 2 6 10 10 7 10 10 8 6 9 18 13 6 8 17 9 7 3 3 -5 -6 11 16 12 -10 30 -1
4 4 10 3 3 0 6 5 7 6 3 4 5 5 5 5 3 6 2 3 1 9 9 11 10 10 10 8 10 12 14 11 19 6 4 15 11 4 4 9 18 15 22 4 -1 11 12
-3 2 3 3 -0 5 -1 3 7 6 6 9 6 7 4 6 5 5 3 3 3 5 5 8 12 7 11 8 8 6 16 14 10 13 16 5 10 13 5 3 14 6 12 12 21 4 18
3 10 8 2 1 1 1 6 2 5 5 6 6 2 6 4 6 4 3 2 3 2 4 9 11 10 6 13 9 4 3 7 22 17 14 16 11 3 15 7 6 21 10 8 -7 16 22
7 9 6 5 3 4 3 3 3 2 3 10 8 5 5 7 3 5 4 2 3 2 6 9 10 14 7 8 12 11 8 11 2 13 22 10 17 14 8 13 16 13 9 17 -5 29 1
28 19 20 31 24 7 7 5 4 1 7 1 5 8 4 1 6 3 4 3 1 2 8 8 7 13 11 5 10 9 12 7 5 15 25 10 19 19 6 8 12 7 14 19 -0 4 14
53 39 27 11 26 39 24 22 7 7 8 4 5 4 9 7 7 3 3 2 2 4 10 6 7 10 16 9 7 10 10 12 13 11 9 24 14 16 9 10 10 3 14 16 15 -6 15
36 39 25 14 11 -2 21 6 20 15 7 3 2 3 6 3 12 6 3 3 -1 2 7 4 8 8 13 14 9 5 11 13 7 9 12 21 15 12 11 9 13 12 7 21 18 -19 34
36 45 27 -15 -26 8 5 34 23 3 6 7 5 7 8 7 9 7 2 3 2 2 -2 4 7 6 9 13 15 10 8 11 12 6 8 22 20 16 15 15 12 10 13 17 17 1 21
29 48 25 -9 8 -24 8 14 14 10 18 12 3 3 9 1 4 12 6 4 3 1 3 7 7 7 9 10 15 10 9 10 13 8 20 13 18 13 18 3 4 14 19 12 15 10 13
4 45 34 49 -26 2 -5 25 3 8 24 4 7 5 4 4 6 14 8 3 2 2 -8 13 7 7 7 8 13 15 8 11 11 13 -3 24 17 19 21 15 14 17 24 17 7 6 3
33 37 28 39 -31 9 7 16 19 39 9 -1 5 6 8 6 5 8 12 0 5 3 -2 12 6 7 4 5 9 17 11 8 9 13 13 -0 11 21 20 16 15 16 15 29 2 7 8
7 21 34 52 -55 12 17 11 21 6 17 12 8 20 6 6 7 8 14 9 -1 5 0 12 4 7 5 4 6 11 17 10 8 10 14 12 16 21 20 15 14 15 28 17 17 8 11
5 17 23 88 -33 -44 -4 14 12 34 21 24 18 9 14 8 6 9 11 9 5 4 0 3 4 7 5 4 4 12 14 19 7 9 10 14 9 16 14 14 12 15 18 13 23 8 9
22 -8 44 23 6 45 35 15 -3 9 19 21 25 15 7 7 10 11 6 6 7 4 4 13 2 7 5 6 4 5 7 12 21 6 8 12 13 11 12 11 10 10 9 26 9 3 11
21 -13 9 19 64 -45 32 13 34 -4 -7 8 19 8 6 6 7 14 11 14 3 1 -9 17 6 5 5 4 6 3 3 10 15 18 13 7 10 15 13 18 14 12 12 10 24 11 8
Height
5799 5801 5802 5803 5805 5805 5805 5805 5805 5805 5805 5804 5804 5803 5802 5800 5799 5796 5792 5789 5785 5781 5777 5773 5768 5763 5757 5750 5742 5735 5728 5720 5712 5705 5700 5695 5690 5685 5683 5681 5678 5682 5691 5684 5689 5691 5696
5798 5798 5799 5800 5799 5801 5802 5802 5802 5801 5802 5801 5800 5799 5798 5796 5793 5790 5787 5783 5779 5774 5769 5765 5760 5754 5748 5741 5732 5724 5716 5708 5700 5693 5685 5678 5673 5668 5668 5666 5663 5666 5665 5669 5671 5678 5680
5795 5796 5795 5796 5797 5797 5797 5797 5797 5798 5797 5797 5796 5795 5793 5791 5789 5785 5782 5778 5772 5767 5762 5758 5752 5745 5739 5732 5723 5713 5703 5695 5687 5679 5674 5668 5665 5662 5659 5655 5651 5651 5651 5652 5662 5665 5664
5792 5792 5792 5792 5792 5793 5793 5793 5794 5794 5794 5793 5791 5790 5789 5787 5784 5781 5777 5773 5767 5761 5756 5750 5745 5738 5730 5722 5712 5703 5694 5686 5678 5673 5669 5663 5659 5655 5649 5645 5642 5641 5640 5643 5653 5653 5658
5786 5788 5788 5788 5789 5789 5789 5789 5789 5789 5789 5788 5788 5786 5784 5782 5779 5776 5772 5768 5762 5755 5749 5743 5738 5731 5722 5713 5704 5694 5686 5678 5673 5669 5664 5659 5655 5650 5642 5635 5632 5630 5630 5634 5638 5639 5639
5779 5782 5782 5783 5783 5783 5783 5784 5784 5784 5783 5783 5783 5781 5779 5777 5775 5772 5768 5763 5757 5750 5743 5737 5731 5725 5715 5706 5695 5687 5679 5676 5671 5665 5660 5655 5650 5644 5639 5630 5626 5622 5619 5621 5626 5629 5626
5772 5774 5776 5777 5778 5777 5777 5778 5778 5778 5778 5778 5777 5776 5774 5772 5770 5767 5764 5759 5753 5747 5738 5731 5725 5716 5706 5698 5690 5680 5675 5672 5667 5661 5656 5652 5647 5640 5634 5628 5622 5618 5615 5615 5618 5620 5620
5767 5767 5767 5769 5771 5771 5771 5772 5772 5772 5772 5772 5772 5770 5769 5767 5765 5763 5758 5754 5747 5741 5732 5726 5719 5711 5702 5692 5683 5675 5673 5669 5663 5657 5652 5649 5642 5636 5630 5624 5618 5614 5611 5612 5614 5616 5615
5760 5761 5761 5762 5763 5763 5764 5765 5765 5765 5765 5766 5765 5765 5764 5762 5760 5758 5754 5750 5742 5736 5729 5722 5714 5706 5698 5689 5680 5674 5671 5666 5660 5654 5650 5645 5639 5633 5626 5621 5615 5612 5611 5608 5608 5608 5607
5750 5752 5753 5754 5755 5756 5757 5758 5758 5758 5759 5758 5759 5759 5758 5757 5756 5752 5749 5744 5737 5730 5724 5718 5710 5703 5694 5686 5680 5673 5668 5664 5658 5653 5648 5643 5636 5628 5622 5618 5613 5609 5608 5606 5604 5603 5604
5739 5741 5743 5745 5747 5748 5749 5750 5751 5752 5752 5752 5752 5753 5752 5751 5750 5747 5744 5739 5733 5726 5720 5714 5706 5699 5691 5685 5678 5673 5667 5661 5655 5649 5646 5641 5633 5627 5622 5617 5612 5611 5605 5602 5600 5602 5602
5726 5729 5732 5734 5737 5739 5740 5742 5742 5744 5745 5746 5746 5746 5746 5746 5744 5742 5738 5734 5730 5724 5715 5709 5702 5695 5689 5681 5675 5670 5665 5659 5654 5648 5643 5639 5633 5627 5623 5619 5615 5612 5608 5604 5598 5599 5599
5711 5715 5719 5722 5725 5728 5730 5732 5733 5735 5737 5738 5739 5740 5739 5739 5739 5736 5733 5730 5727 5720 5714 5707 5699 5693 5686 5679 5673 5667 5662 5658 5653 5648 5643 5639 5633 5628 5624 5620 5616 5613 5610 5607 5606 5602 5603
5695 5699 5703 5709 5713 5716 5719 5722 5724 5726 5728 5730 5732 5733 5733 5733 5733 5731 5728 5726 5721 5716 5710 5703 5697 5689 5683 5676 5670 5664 5659 5654 5650 5645 5641 5637 5634 5629 5625 5621 5618 5614 5613 5610 5607 5605 5603
5675 5681 5686 5693 5698 5703 5707 5710 5713 5716 5719 5722 5723 5725 5726 5726 5726 5725 5724 5721 5716 5712 5707 5701 5694 5688 5681 5675 5669 5662 5656 5651 5647 5643 5639 5634 5632 5627 5623 5619 5616 5613 5611 5609 5607 5605 5603
5653 5660 5666 5674 5681 5688 5693 5698 5702 5706 5709 5713 5715 5717 5719 5719 5720 5719 5718 5716 5711 5708 5703 5697 5691 5685 5679 5673 5667 5660 5653 5649 5643 5639 5634 5631 5629 5626 5623 5619 5615 5613 5611 5609 5607 5604 5600
5626 5635 5645 5654 5662 5670 5677 5684 5690 5694 5699 5703 5706 5708 5711 5712 5713 5713 5712 5711 5708 5703 5699 5694 5688 5682 5676 5671 5664 5658 5653 5647 5640 5635 5630 5627 5625 5623 5620 5617 5614 5612 5609 5608 5608 5605 5599
5592 5606 5619 5631 5642 5651 5661 5669 5675 5682 5687 5691 5696 5699 5702 5704 5706 5706 5706 5705 5704 5699 5695 5691 5685 5679 5673 5667 5662 5656 5651 5644 5638 5632 5627 5623 5621 5619 5618 5615 5612 5610 5608 5608 5608 5606 5601
5556 5573 5591 5607 5618 5630 5642 5651 5660 5669 5674 5680 5685 5689 5692 5695 5698 5700 5700 5699 5698 5695 5692 5687 5682 5676 5671 5665 5661 5655 5649 5643 5636 5630 5625 5621 5618 5616 5615 5615 5612 5609 5608 5607 5609 5606 5603
5527 5546 5567 5588 5600 5609 5621 5633 5643 5653 5660 5667 5675 5679 5683 5686 5690 5692 5693 5693 5692 5691 5688 5684 5679 5674 5668 5662 5658 5653 5647 5642 5636 5630 5624 5619 5616 5614 5613 5611 5611 5609 5607 5607 5609 5609 5605
5509 5527 5550 5565 5581 5595 5601 5613 5625 5636 5645 5654 5662 5669 5674 5677 5681 5683 5686 5687 5687 5687 5684 5681 5677 5671 5666 5660 5655 5650 5646 5640 5634 5628 5623 5618 5614 5612 5610 5609 5609 5609 5608 5607 5609 5610 5607
5501 5509 5526 5546 5561 5575 5588 5594 5606 5620 5629 5640 5651 5657 5664 5668 5671 5674 5678 5680 5681 5681 5680 5677 5673 5669 5664 5658 5653 5649 5644 5638 5633 5628 5622 5617 5613 5611 5609 5608 5607 5606 5607 5607 5608 5611 5609
5490 5494 5513 5528 5546 5561 5574 5581 5591 5603 5617 5628 5636 5645 5652 5657 5661 5666 5671 5672 5674 5675 5675 5674 5670 5666 5661 5656 5651 5647 5642 5637 5632 5627 5621 5617 5612 5609 5608 5607 5607 5606 5606 5606 5608 5613 5615
5482 5490 5498 5513 5535 5547 5561 5568 5579 5591 5605 5614 5624 5633 5641 5648 5651 5657 5661 5665 5666 5668 5669 5669 5667 5664 5661 5655 5649 5645 5641 5636 5632 5627 5622 5617 5612 5609 5607 5606 5606 5605 5605 5607 5609 5613 5617
5479 5481 5490 5499 5516 5530 5547 5558 5569 5580 5591 5602 5611 5621 5630 5637 5642 5647 5653 5656 5659 5661 5663 5664 5662 5660 5657 5653 5649 5644 5640 5636 5631 5627 5622 5618 5613 5610 5607 5606 5607 5605 5606 5607 5611 5615 5619
5474 5478 5486 5492 5507 5525 5539 5550 5559 5569 5579 5589 5599 5609 5619 5627 5633 5638 5642 5647 5651 5655 5657 5659 5658 5656 5655 5651 5647 5643 5638 5635 5631 5628 5623 5619 5615 5612 5609 5608 5608 5607 5607 5609 5613 5618 5620
5471 5477 5482 5488 5503 5517 5530 5540 5552 5560 5569 5580 5590 5600 5608 5617 5623 5628 5634 5639 5643 5647 5650 5653 5654 5653 5651 5649 5646 5642 5638 5635 5631 5628 5625 5621 5617 5615 5613 5612 5611 5610 5610 5611 5615 5622 5622
5467 5470 5475 5484 5495 5510 5523 5534 5544 5551 5561 5570 5581 5589 5599 5607 5613 5618 5624 5629 5634 5640 5643 5647 5649 5648 5648 5646 5644 5641 5638 5635 5631 5628 5626 5623 5620 5617 5615 5614 5614 5613 5614 5615 5618 5620 5624
5460 5467 5470 5478 5487 5500 5515 5525 5534 5543 5553 5562 5572 5580 5589 5598 5604 5608 5614 5620 5626 5631 5636 5640 5642 5643 5643 5643 5642 5640 5637 5635 5632 5629 5626 5624 5622 5620 5618 5617 5616 5616 5616 5617 5619 5622 5625